| time (UTC) | temp C | wind direction | speed KPH | gust KPH | rain 1hr cm | rain 24hr cm | rain mn cm | humidity % | barometer mb |
| 20260509053207 | 6 | 191 | 6.4 | 6.4 | 0.00 | 0.00 | 0.00 | 55 | 1023.2 |
| 20260509052705 | 6 | 212 | 6.4 | 6.4 | 0.00 | 0.00 | 0.00 | 54 | 1023.2 |
| 20260509052202 | 6 | 190 | 4.8 | 4.8 | 0.00 | 0.00 | 0.00 | 54 | 1023.3 |
| 20260509051659 | 6 | 222 | 4.8 | 6.4 | 0.00 | 0.00 | 0.00 | 56 | 1023.6 |
| 20260509051157 | 6 | 196 | 3.2 | 6.4 | 0.00 | 0.00 | 0.00 | 54 | 1023.6 |
| 20260509050654 | 6 | 244 | 4.8 | 6.4 | 0.00 | 0.00 | 0.00 | 53 | 1023.9 |
| 20260509050150 | 7 | 209 | 3.2 | 4.8 | 0.00 | 0.00 | 0.00 | 52 | 1023.7 |
| 20260509045648 | 7 | 223 | 4.8 | 9.7 | 0.00 | 0.00 | 0.00 | 54 | 1023.7 |
| 20260509045144 | 7 | 219 | 6.4 | 6.4 | 0.00 | 0.00 | 0.00 | 53 | 1023.6 |
| 20260509044641 | 7 | 220 | 6.4 | 9.7 | 0.00 | 0.00 | 0.00 | 50 | 1023.7 |
| 20260509044139 | 6 | 244 | 6.4 | 11.3 | 0.00 | 0.00 | 0.00 | 55 | 1023.7 |
| 20260509043636 | 5 | 194 | 6.4 | 6.4 | 0.00 | 0.00 | 0.00 | 70 | 1023.9 |
| 20260509043131 | 5 | 212 | 4.8 | 4.8 | 0.00 | 0.00 | 0.00 | 73 | 1024.0 |
| 20260509042628 | 5 | 210 | 3.2 | 4.8 | 0.00 | 0.00 | 0.00 | 72 | 1024.3 |
| 20260509042124 | 5 | 218 | 3.2 | 4.8 | 0.00 | 0.00 | 0.00 | 73 | 1024.3 |
| 20260509041621 | 5 | 210 | 4.8 | 4.8 | 0.00 | 0.00 | 0.00 | 71 | 1024.3 |
| 20260509041118 | 6 | 215 | 3.2 | 4.8 | 0.00 | 0.00 | 0.00 | 70 | 1024.1 |
| 20260509040617 | 6 | 212 | 3.2 | 4.8 | 0.00 | 0.00 | 0.00 | 69 | 1024.1 |
| 20260509040113 | 6 | 235 | 0.0 | 1.6 | 0.00 | 0.00 | 0.00 | 68 | 1024.1 |
| 20260509035610 | 7 | 262 | 3.2 | 4.8 | 0.00 | 0.00 | 0.00 | 65 | 1024.0 |
| 20260509035107 | 6 | 237 | 1.6 | 4.8 | 0.00 | 0.00 | 0.00 | 70 | 1024.3 |
| 20260509034605 | 7 | 238 | 1.6 | 9.7 | 0.00 | 0.00 | 0.00 | 70 | 1024.3 |
| 20260509034101 | 6 | 227 | 6.4 | 12.9 | 0.00 | 0.00 | 0.00 | 70 | 1024.5 |
| 20260509033558 | 7 | 227 | 3.2 | 4.8 | 0.00 | 0.00 | 0.00 | 71 | 1024.0 |
| 20260509033055 | 6 | 205 | 6.4 | 11.3 | 0.00 | 0.00 | 0.00 | 72 | 1024.4 |
| 20260509032553 | 6 | 238 | 3.2 | 4.8 | 0.00 | 0.00 | 0.00 | 73 | 1024.3 |
| 20260509032049 | 6 | 249 | 4.8 | 12.9 | 0.00 | 0.00 | 0.00 | 72 | 1024.1 |
| 20260509031547 | 6 | 178 | 11.3 | 12.9 | 0.00 | 0.00 | 0.00 | 71 | 1024.0 |
| 20260509031044 | 6 | 190 | 3.2 | 9.7 | 0.00 | 0.00 | 0.00 | 73 | 1024.6 |
| 20260509030543 | 6 | 230 | 4.8 | 6.4 | 0.00 | 0.00 | 0.00 | 72 | 1024.3 |
| 20260509030039 | 6 | 221 | 6.4 | 9.7 | 0.00 | 0.00 | 0.00 | 72 | 1024.3 |
| 20260509025535 | 7 | 221 | 3.2 | 9.7 | 0.00 | 0.00 | 0.00 | 71 | 1024.3 |
| 20260509025031 | 7 | 236 | 3.2 | 4.8 | 0.00 | 0.00 | 0.00 | 72 | 1023.7 |
| 20260509024527 | 6 | 218 | 4.8 | 9.7 | 0.00 | 0.00 | 0.00 | 72 | 1023.9 |
| 20260509024023 | 6 | 188 | 4.8 | 6.4 | 0.00 | 0.00 | 0.00 | 74 | 1023.7 |
| 20260509023521 | 6 | 227 | 3.2 | 4.8 | 0.00 | 0.00 | 0.00 | 74 | 1023.6 |
| 20260509023018 | 7 | 250 | 3.2 | 4.8 | 0.00 | 0.00 | 0.00 | 70 | 1023.7 |
| 20260509022514 | 7 | 230 | 6.4 | 9.7 | 0.00 | 0.00 | 0.00 | 69 | 1023.5 |
| 20260509022012 | 6 | 221 | 3.2 | 3.2 | 0.00 | 0.00 | 0.00 | 73 | 1023.5 |
| 20260509021509 | 6 | 238 | 4.8 | 6.4 | 0.00 | 0.00 | 0.00 | 72 | 1023.5 |
| 20260509021006 | 7 | 194 | 4.8 | 11.3 | 0.00 | 0.00 | 0.00 | 70 | 1023.5 |
| 20260509020504 | 7 | 212 | 8.0 | 12.9 | 0.00 | 0.00 | 0.00 | 68 | 1023.7 |
| 20260509020000 | 7 | 193 | 6.4 | 11.3 | 0.00 | 0.00 | 0.00 | 69 | 1023.6 |
| 20260509015459 | 7 | 185 | 6.4 | 9.7 | 0.00 | 0.00 | 0.00 | 70 | 1023.6 |
| 20260509014956 | 7 | 225 | 4.8 | 9.7 | 0.00 | 0.00 | 0.00 | 70 | 1023.6 |
| 20260509014453 | 7 | 214 | 8.0 | 9.7 | 0.00 | 0.00 | 0.00 | 70 | 1023.5 |
| 20260509013949 | 7 | 240 | 1.6 | 3.2 | 0.00 | 0.00 | 0.00 | 70 | 1023.7 |
| 20260509013446 | 7 | 209 | 6.4 | 9.7 | 0.00 | 0.00 | 0.00 | 72 | 1023.2 |
| 20260509012936 | 7 | 223 | 0.0 | 0.0 | 0.00 | 0.00 | 0.00 | 70 | 1023.3 |
| 20260509012433 | 8 | 225 | 3.2 | 4.8 | 0.00 | 0.00 | 0.00 | 67 | 1023.5 |
| 20260509011930 | 8 | 240 | 0.0 | 3.2 | 0.00 | 0.00 | 0.00 | 68 | 1023.3 |
| 20260509011427 | 8 | 238 | 1.6 | 3.2 | 0.00 | 0.00 | 0.00 | 69 | 1023.1 |
| 20260509010925 | 8 | 253 | 3.2 | 9.7 | 0.00 | 0.00 | 0.00 | 68 | 1023.3 |
| 20260509010422 | 8 | 142 | 4.8 | 4.8 | 0.00 | 0.00 | 0.00 | 67 | 1023.2 |
| 20260509005919 | 8 | 209 | 3.2 | 4.8 | 0.00 | 0.00 | 0.00 | 66 | 1023.5 |
| 20260509005417 | 8 | 228 | 0.0 | 4.8 | 0.00 | 0.00 | 0.00 | 67 | 1023.3 |
| 20260509004917 | 8 | 211 | 3.2 | 9.7 | 0.00 | 0.00 | 0.00 | 67 | 1022.9 |
| 20260509004414 | 8 | 167 | 3.2 | 6.4 | 0.00 | 0.00 | 0.00 | 66 | 1023.2 |
| 20260509003912 | 8 | 218 | 3.2 | 6.4 | 0.00 | 0.00 | 0.00 | 68 | 1023.1 |
| 20260509003409 | 8 | 249 | 1.6 | 1.6 | 0.00 | 0.00 | 0.00 | 66 | 1023.2 |
| 20260509002906 | 8 | 191 | 3.2 | 4.8 | 0.00 | 0.00 | 0.00 | 66 | 1023.2 |
| 20260509002404 | 8 | 254 | 0.0 | 1.6 | 0.00 | 0.00 | 0.00 | 65 | 1023.1 |
| 20260509001901 | 9 | 88 | 3.2 | 6.4 | 0.00 | 0.00 | 0.00 | 65 | 1023.1 |
| 20260509001356 | 8 | 295 | 1.6 | 4.8 | 0.00 | 0.00 | 0.00 | 64 | 1023.3 |
| 20260509000854 | 8 | 187 | 4.8 | 4.8 | 0.00 | 0.00 | 0.00 | 65 | 1023.3 |
| 20260509000352 | 8 | 176 | 4.8 | 4.8 | 0.00 | 0.00 | 0.00 | 65 | 1023.3 |
| 20260508235848 | 9 | 242 | 3.2 | 4.8 | 0.00 | 0.00 | 0.00 | 65 | 1023.5 |
| 20260508235345 | 9 | 320 | 1.6 | 3.2 | 0.00 | 0.00 | 0.00 | 63 | 1023.5 |
| 20260508234842 | 9 | 16 | 0.0 | 3.2 | 0.00 | 0.00 | 0.00 | 64 | 1023.2 |
| 20260508234338 | 10 | 312 | 1.6 | 3.2 | 0.00 | 0.00 | 0.00 | 62 | 1023.3 |
| 20260508233837 | 10 | 45 | 6.4 | 9.7 | 0.00 | 0.00 | 0.00 | 61 | 1023.2 |
| 20260508233336 | 10 | 24 | 3.2 | 4.8 | 0.00 | 0.00 | 0.00 | 61 | 1022.9 |
| 20260508232832 | 11 | 262 | 3.2 | 4.8 | 0.00 | 0.00 | 0.00 | 59 | 1023.2 |
| 20260508232329 | 10 | 235 | 1.6 | 6.4 | 0.00 | 0.00 | 0.00 | 61 | 1023.3 |
| 20260508231827 | 10 | 76 | 0.0 | 11.3 | 0.00 | 0.00 | 0.00 | 61 | 1023.1 |
| 20260508231323 | 10 | 138 | 3.2 | 9.7 | 0.00 | 0.00 | 0.00 | 59 | 1022.9 |
| 20260508230820 | 10 | 341 | 1.6 | 9.7 | 0.00 | 0.00 | 0.00 | 58 | 1022.9 |
| 20260508230316 | 10 | 148 | 8.0 | 11.3 | 0.00 | 0.00 | 0.00 | 59 | 1023.2 |
| 20260508225814 | 10 | 29 | 4.8 | 11.3 | 0.00 | 0.00 | 0.00 | 60 | 1023.3 |
| 20260508225310 | 10 | 323 | 0.0 | 3.2 | 0.00 | 0.00 | 0.00 | 59 | 1023.2 |
| 20260508224809 | 10 | 344 | 8.0 | 12.9 | 0.00 | 0.00 | 0.00 | 59 | 1023.1 |
| 20260508224306 | 10 | 233 | 6.4 | 12.9 | 0.00 | 0.00 | 0.00 | 59 | 1023.1 |
| 20260508223803 | 11 | 179 | 4.8 | 9.7 | 0.00 | 0.00 | 0.00 | 57 | 1022.9 |
| 20260508223300 | 11 | 95 | 4.8 | 11.3 | 0.00 | 0.00 | 0.00 | 57 | 1023.2 |
| 20260508222758 | 10 | 242 | 0.0 | 6.4 | 0.00 | 0.00 | 0.00 | 58 | 1023.1 |
| 20260508222255 | 10 | 38 | 3.2 | 11.3 | 0.00 | 0.00 | 0.00 | 59 | 1023.5 |
| 20260508221752 | 11 | 242 | 1.6 | 9.7 | 0.00 | 0.00 | 0.00 | 57 | 1023.1 |
| 20260508221247 | 11 | 112 | 6.4 | 11.3 | 0.00 | 0.00 | 0.00 | 54 | 1023.1 |
| 20260508220743 | 10 | 18 | 3.2 | 6.4 | 0.00 | 0.00 | 0.00 | 59 | 1023.1 |
| 20260508220240 | 10 | 146 | 6.4 | 16.1 | 0.00 | 0.00 | 0.00 | 59 | 1023.1 |
| 20260508215736 | 10 | 88 | 9.7 | 14.5 | 0.00 | 0.00 | 0.00 | 58 | 1023.2 |
| 20260508215233 | 10 | 311 | 4.8 | 11.3 | 0.00 | 0.00 | 0.00 | 59 | 1023.2 |
| 20260508214730 | 10 | 60 | 4.8 | 4.8 | 0.00 | 0.00 | 0.00 | 58 | 1023.1 |
| 20260508214227 | 10 | 272 | 6.4 | 6.4 | 0.00 | 0.00 | 0.00 | 60 | 1023.3 |
| 20260508213723 | 10 | 19 | 8.0 | 11.3 | 0.00 | 0.00 | 0.00 | 61 | 1023.3 |
| 20260508213220 | 10 | 158 | 1.6 | 4.8 | 0.00 | 0.00 | 0.00 | 60 | 1023.3 |
| 20260508212717 | 10 | 323 | 3.2 | 3.2 | 0.00 | 0.00 | 0.00 | 60 | 1023.1 |
| 20260508212213 | 10 | 333 | 4.8 | 6.4 | 0.00 | 0.00 | 0.00 | 60 | 1022.8 |
| 20260508211709 | 10 | 17 | 0.0 | 3.2 | 0.00 | 0.00 | 0.00 | 61 | 1023.2 |
| 20260508211205 | 10 | 46 | 4.8 | 9.7 | 0.00 | 0.00 | 0.00 | 61 | 1023.1 |
| 20260508210702 | 10 | 26 | 3.2 | 9.7 | 0.00 | 0.00 | 0.00 | 61 | 1023.5 |
| 20260508210200 | 10 | 26 | 3.2 | 6.4 | 0.00 | 0.00 | 0.00 | 60 | 1023.3 |
| 20260508205656 | 9 | 241 | 4.8 | 4.8 | 0.00 | 0.00 | 0.00 | 62 | 1023.2 |
| 20260508205153 | 10 | 98 | 8.0 | 12.9 | 0.00 | 0.00 | 0.00 | 61 | 1023.2 |
| 20260508204649 | 10 | 358 | 3.2 | 11.3 | 0.00 | 0.00 | 0.00 | 62 | 1023.5 |
| 20260508204145 | 10 | 204 | 3.2 | 12.9 | 0.00 | 0.00 | 0.00 | 61 | 1023.3 |
| 20260508203641 | 10 | 174 | 9.7 | 14.5 | 0.00 | 0.00 | 0.00 | 62 | 1023.3 |
| 20260508203138 | 11 | 50 | 6.4 | 12.9 | 0.00 | 0.00 | 0.00 | 60 | 1023.5 |
| 20260508202634 | 10 | 311 | 3.2 | 12.9 | 0.00 | 0.00 | 0.00 | 59 | 1023.5 |
| 20260508202131 | 11 | 267 | 1.6 | 12.9 | 0.00 | 0.00 | 0.00 | 59 | 1023.6 |
| 20260508201628 | 9 | 268 | 0.0 | 9.7 | 0.00 | 0.00 | 0.00 | 62 | 1023.5 |
| 20260508201125 | 10 | 104 | 4.8 | 11.3 | 0.00 | 0.00 | 0.00 | 61 | 1023.5 |
| 20260508200621 | 11 | 15 | 3.2 | 14.5 | 0.00 | 0.00 | 0.00 | 60 | 1023.6 |
| 20260508200117 | 11 | 57 | 8.0 | 12.9 | 0.00 | 0.00 | 0.00 | 57 | 1023.3 |
| 20260508195614 | 10 | 151 | 6.4 | 9.7 | 0.00 | 0.00 | 0.00 | 59 | 1023.6 |
| 20260508195111 | 9 | 116 | 4.8 | 11.3 | 0.00 | 0.00 | 0.00 | 62 | 1023.6 |
| 20260508194607 | 10 | 169 | 6.4 | 11.3 | 0.00 | 0.00 | 0.00 | 62 | 1023.9 |
| 20260508194104 | 10 | 1 | 3.2 | 14.5 | 0.00 | 0.00 | 0.00 | 61 | 1023.7 |
| 20260508193601 | 10 | 309 | 1.6 | 11.3 | 0.00 | 0.00 | 0.00 | 58 | 1023.6 |
| 20260508193058 | 9 | 277 | 4.8 | 6.4 | 0.00 | 0.00 | 0.00 | 59 | 1023.9 |
| 20260508192554 | 10 | 359 | 9.7 | 14.5 | 0.00 | 0.00 | 0.00 | 61 | 1023.6 |
| 20260508192052 | 9 | 88 | 9.7 | 12.9 | 0.00 | 0.00 | 0.00 | 62 | 1023.7 |
| 20260508191548 | 8 | 18 | 3.2 | 12.9 | 0.00 | 0.00 | 0.00 | 64 | 1023.5 |
| 20260508191045 | 9 | 325 | 8.0 | 11.3 | 0.00 | 0.00 | 0.00 | 64 | 1023.7 |
| 20260508190542 | 9 | 298 | 3.2 | 11.3 | 0.00 | 0.00 | 0.00 | 62 | 1023.9 |
| 20260508190038 | 10 | 95 | 4.8 | 12.9 | 0.00 | 0.00 | 0.00 | 57 | 1023.7 |
| 20260508185536 | 9 | 333 | 4.8 | 16.1 | 0.00 | 0.00 | 0.00 | 61 | 1023.9 |
| 20260508185033 | 8 | 25 | 3.2 | 11.3 | 0.00 | 0.00 | 0.00 | 62 | 1023.9 |
| 20260508184531 | 10 | 353 | 4.8 | 12.9 | 0.00 | 0.00 | 0.00 | 61 | 1023.9 |
| 20260508184027 | 10 | 357 | 3.2 | 9.7 | 0.00 | 0.00 | 0.00 | 62 | 1023.5 |
| 20260508183524 | 8 | 170 | 9.7 | 14.5 | 0.00 | 0.00 | 0.00 | 64 | 1023.9 |
| 20260508183020 | 9 | 316 | 8.0 | 9.7 | 0.00 | 0.00 | 0.00 | 60 | 1024.0 |
| 20260508182517 | 8 | 265 | 1.6 | 9.7 | 0.00 | 0.00 | 0.00 | 66 | 1023.9 |
| 20260508182013 | 9 | 357 | 6.4 | 16.1 | 0.00 | 0.00 | 0.00 | 65 | 1023.6 |
| 20260508181508 | 10 | 250 | 3.2 | 9.7 | 0.00 | 0.00 | 0.00 | 63 | 1023.7 |
| 20260508181007 | 8 | 317 | 1.6 | 11.3 | 0.00 | 0.00 | 0.00 | 67 | 1024.0 |
| 20260508180503 | 9 | 16 | 6.4 | 14.5 | 0.00 | 0.00 | 0.00 | 65 | 1023.7 |
| 20260508175959 | 9 | 316 | 8.0 | 16.1 | 0.00 | 0.00 | 0.00 | 63 | 1023.7 |
| 20260508175455 | 8 | 338 | 3.2 | 6.4 | 0.00 | 0.00 | 0.00 | 65 | 1023.9 |
| 20260508174953 | 8 | 0 | 3.2 | 14.5 | 0.00 | 0.00 | 0.00 | 66 | 1024.0 |
| 20260508174451 | 8 | 23 | 9.7 | 16.1 | 0.00 | 0.00 | 0.00 | 65 | 1023.9 |
| 20260508173947 | 10 | 313 | 9.7 | 14.5 | 0.00 | 0.00 | 0.00 | 61 | 1023.9 |
| 20260508173445 | 10 | 322 | 8.0 | 12.9 | 0.00 | 0.00 | 0.00 | 58 | 1023.7 |
| 20260508172940 | 11 | 335 | 12.9 | 16.1 | 0.00 | 0.00 | 0.00 | 39 | 1023.5 |
| 20260508172438 | 11 | 343 | 12.9 | 16.1 | 0.00 | 0.00 | 0.00 | 44 | 1023.9 |
| 20260508171934 | 11 | 4 | 16.1 | 24.1 | 0.00 | 0.00 | 0.00 | 38 | 1023.9 |
| 20260508171430 | 10 | 319 | 9.7 | 14.5 | 0.00 | 0.00 | 0.00 | 39 | 1024.0 |
| 20260508170927 | 10 | 344 | 17.7 | 24.1 | 0.00 | 0.00 | 0.00 | 39 | 1024.1 |
| 20260508170425 | 11 | 314 | 9.7 | 20.9 | 0.00 | 0.00 | 0.00 | 38 | 1023.9 |
| 20260508165921 | 11 | 340 | 11.3 | 17.7 | 0.00 | 0.00 | 0.00 | 40 | 1023.7 |
| 20260508165419 | 11 | 328 | 9.7 | 14.5 | 0.00 | 0.00 | 0.00 | 40 | 1023.6 |
| 20260508164915 | 10 | 353 | 9.7 | 27.4 | 0.00 | 0.00 | 0.00 | 42 | 1023.9 |
| 20260508164412 | 10 | 357 | 16.1 | 22.5 | 0.00 | 0.00 | 0.00 | 42 | 1023.7 |
| 20260508163909 | 10 | 321 | 14.5 | 20.9 | 0.00 | 0.00 | 0.00 | 41 | 1023.9 |
| 20260508163407 | 10 | 9 | 12.9 | 17.7 | 0.00 | 0.00 | 0.00 | 43 | 1024.1 |
| 20260508162902 | 10 | 15 | 11.3 | 16.1 | 0.00 | 0.00 | 0.00 | 45 | 1023.7 |
| 20260508162400 | 9 | 7 | 9.7 | 14.5 | 0.00 | 0.00 | 0.00 | 44 | 1024.0 |
| 20260508161857 | 9 | 312 | 14.5 | 20.9 | 0.00 | 0.00 | 0.00 | 47 | 1023.9 |
| 20260508161354 | 9 | 261 | 4.8 | 12.9 | 0.00 | 0.00 | 0.00 | 50 | 1023.9 |
| 20260508160851 | 8 | 319 | 4.8 | 11.3 | 0.00 | 0.00 | 0.00 | 49 | 1023.9 |
| 20260508160350 | 8 | 306 | 9.7 | 12.9 | 0.00 | 0.00 | 0.00 | 50 | 1023.9 |
| 20260508155845 | 8 | 333 | 14.5 | 20.9 | 0.00 | 0.00 | 0.00 | 51 | 1023.7 |
| 20260508155343 | 8 | 336 | 6.4 | 16.1 | 0.00 | 0.00 | 0.00 | 56 | 1023.7 |
| 20260508154840 | 8 | 315 | 6.4 | 11.3 | 0.00 | 0.00 | 0.00 | 55 | 1023.7 |
| 20260508154337 | 7 | 308 | 14.5 | 16.1 | 0.00 | 0.00 | 0.00 | 53 | 1023.9 |
| 20260508153833 | 7 | 301 | 6.4 | 14.5 | 0.00 | 0.00 | 0.00 | 55 | 1023.9 |
| 20260508153331 | 7 | 39 | 3.2 | 9.7 | 0.00 | 0.00 | 0.00 | 63 | 1024.0 |
| 20260508152827 | 6 | 314 | 4.8 | 11.3 | 0.00 | 0.00 | 0.00 | 62 | 1024.0 |
| 20260508152324 | 6 | 280 | 9.7 | 14.5 | 0.00 | 0.00 | 0.00 | 62 | 1023.9 |
| 20260508151820 | 7 | 315 | 1.6 | 9.7 | 0.00 | 0.00 | 0.00 | 59 | 1023.9 |
| 20260508151317 | 7 | 277 | 3.2 | 12.9 | 0.00 | 0.00 | 0.00 | 57 | 1023.9 |
| 20260508150813 | 8 | 336 | 8.0 | 11.3 | 0.00 | 0.00 | 0.00 | 57 | 1024.1 |
| 20260508150310 | 6 | 327 | 1.6 | 4.8 | 0.00 | 0.00 | 0.00 | 56 | 1024.0 |
| 20260508145806 | 6 | 306 | 1.6 | 11.3 | 0.00 | 0.00 | 0.00 | 63 | 1023.9 |
| 20260508145306 | 6 | 294 | 3.2 | 6.4 | 0.00 | 0.00 | 0.00 | 63 | 1024.0 |
| 20260508144759 | 6 | 262 | 1.6 | 6.4 | 0.00 | 0.00 | 0.00 | 66 | 1024.1 |
| 20260508144257 | 6 | 338 | 4.8 | 4.8 | 0.00 | 0.00 | 0.00 | 68 | 1023.9 |
| 20260508143755 | 6 | 264 | 1.6 | 12.9 | 0.00 | 0.00 | 0.00 | 62 | 1023.9 |
| 20260508143252 | 6 | 277 | 4.8 | 11.3 | 0.00 | 0.00 | 0.00 | 65 | 1023.7 |
| 20260508142748 | 6 | 309 | 6.4 | 11.3 | 0.00 | 0.00 | 0.00 | 62 | 1023.9 |
| 20260508142245 | 5 | 324 | 4.8 | 11.3 | 0.00 | 0.00 | 0.00 | 65 | 1024.0 |
| 20260508141741 | 5 | 275 | 0.0 | 3.2 | 0.00 | 0.00 | 0.00 | 78 | 1024.1 |
| 20260508141239 | 6 | 332 | 6.4 | 11.3 | 0.00 | 0.00 | 0.00 | 58 | 1024.1 |
| 20260508140736 | 5 | 277 | 6.4 | 9.7 | 0.00 | 0.00 | 0.00 | 62 | 1024.1 |
| 20260508140233 | 4 | 268 | 0.0 | 3.2 | 0.00 | 0.00 | 0.00 | 71 | 1024.0 |
| 20260508135729 | 2 | 248 | 1.6 | 4.8 | 0.00 | 0.00 | 0.00 | 92 | 1024.3 |
| 20260508135225 | 2 | 196 | 1.6 | 3.2 | 0.00 | 0.00 | 0.00 | 98 | 1024.0 |
| 20260508134721 | 1 | 248 | 0.0 | 1.6 | 0.00 | 0.00 | 0.00 | 98 | 1024.1 |
| 20260508134218 | 0 | 241 | 3.2 | 3.2 | 0.00 | 0.00 | 0.00 | 98 | 1024.1 |
| 20260508133715 | 0 | 265 | 0.0 | 3.2 | 0.00 | 0.00 | 0.00 | 98 | 1024.1 |
| 20260508133213 | 0 | 291 | 0.0 | 0.0 | 0.00 | 0.00 | 0.00 | 98 | 1024.1 |
| 20260508132710 | 0 | 211 | 1.6 | 1.6 | 0.00 | 0.00 | 0.00 | 97 | 1024.1 |
| 20260508132207 | 0 | 255 | 0.0 | 0.0 | 0.00 | 0.00 | 0.00 | 97 | 1024.1 |
| 20260508131657 | 0 | 257 | 0.0 | 0.0 | 0.00 | 0.00 | 0.00 | 97 | 1024.3 |
| 20260508131154 | 0 | 266 | 0.0 | 3.2 | 0.00 | 0.00 | 0.00 | 97 | 1024.1 |
| 20260508130651 | 0 | 279 | 1.6 | 3.2 | 0.00 | 0.00 | 0.00 | 96 | 1024.1 |
| 20260508130148 | 0 | 281 | 1.6 | 1.6 | 0.00 | 0.00 | 0.00 | 95 | 1024.3 |
| 20260508125643 | 0 | 80 | 4.8 | 11.3 | 0.00 | 0.00 | 0.00 | 94 | 1024.4 |
| 20260508125140 | 0 | 34 | 6.4 | 9.7 | 0.00 | 0.00 | 0.00 | 88 | 1023.9 |
| 20260508124638 | 2 | 340 | 3.2 | 4.8 | 0.00 | 0.00 | 0.00 | 73 | 1023.7 |
| 20260508124135 | 2 | 253 | 0.0 | 0.0 | 0.00 | 0.00 | 0.00 | 71 | 1023.6 |
| 20260508123634 | 3 | 248 | 0.0 | 3.2 | 0.00 | 0.00 | 0.00 | 68 | 1023.5 |
| 20260508123131 | 2 | 139 | 3.2 | 3.2 | 0.00 | 0.00 | 0.00 | 71 | 1023.2 |
| 20260508122627 | 1 | 255 | 0.0 | 6.4 | 0.00 | 0.00 | 0.00 | 74 | 1023.2 |
| 20260508122124 | 1 | 228 | 0.0 | 1.6 | 0.00 | 0.00 | 0.00 | 75 | 1023.1 |
| 20260508121622 | 1 | 220 | 3.2 | 3.2 | 0.00 | 0.00 | 0.00 | 74 | 1023.1 |
| 20260508121120 | 1 | 211 | 3.2 | 3.2 | 0.00 | 0.00 | 0.00 | 73 | 1023.1 |
| 20260508120617 | 1 | 224 | 3.2 | 3.2 | 0.00 | 0.00 | 0.00 | 73 | 1022.9 |
| 20260508120116 | 1 | 214 | 4.8 | 4.8 | 0.00 | 0.00 | 0.00 | 71 | 1022.8 |
| 20260508115613 | 1 | 234 | 3.2 | 4.8 | 0.00 | 0.00 | 0.00 | 74 | 1022.8 |
| 20260508115109 | 1 | 232 | 1.6 | 3.2 | 0.00 | 0.00 | 0.00 | 72 | 1022.7 |
| 20260508114607 | 1 | 213 | 3.2 | 3.2 | 0.00 | 0.00 | 0.00 | 74 | 1022.5 |
| 20260508114102 | 1 | 250 | 0.0 | 3.2 | 0.00 | 0.00 | 0.00 | 74 | 1022.5 |
| 20260508113600 | 1 | 233 | 1.6 | 4.8 | 0.00 | 0.00 | 0.00 | 71 | 1022.7 |
| 20260508113058 | 2 | 224 | 1.6 | 3.2 | 0.00 | 0.00 | 0.00 | 69 | 1022.7 |
| 20260508112554 | 3 | 231 | 1.6 | 4.8 | 0.00 | 0.00 | 0.00 | 68 | 1022.7 |
| 20260508112051 | 3 | 155 | 6.4 | 11.3 | 0.00 | 0.00 | 0.00 | 67 | 1022.5 |
| 20260508111548 | 2 | 233 | 4.8 | 4.8 | 0.00 | 0.00 | 0.00 | 69 | 1022.5 |
| 20260508111045 | 3 | 285 | 3.2 | 9.7 | 0.00 | 0.00 | 0.00 | 65 | 1022.4 |
| 20260508110543 | 4 | 299 | 8.0 | 16.1 | 0.00 | 0.00 | 0.00 | 59 | 1022.4 |
| 20260508110038 | 3 | 249 | 0.0 | 6.4 | 0.00 | 0.00 | 0.00 | 64 | 1022.1 |
| 20260508105533 | 3 | 262 | 6.4 | 22.5 | 0.00 | 0.00 | 0.00 | 62 | 1022.3 |
| 20260508105031 | 2 | 247 | 1.6 | 3.2 | 0.00 | 0.00 | 0.00 | 67 | 1022.1 |
| 20260508104529 | 1 | 180 | 6.4 | 12.9 | 0.00 | 0.00 | 0.00 | 71 | 1022.3 |
| 20260508104025 | 1 | 207 | 6.4 | 9.7 | 0.00 | 0.00 | 0.00 | 80 | 1022.0 |
| 20260508103522 | 0 | 227 | 6.4 | 6.4 | 0.00 | 0.00 | 0.00 | 81 | 1022.3 |
| 20260508103020 | 1 | 256 | 0.0 | 4.8 | 0.00 | 0.00 | 0.00 | 79 | 1022.5 |
| 20260508102517 | 0 | 205 | 3.2 | 9.7 | 0.00 | 0.00 | 0.00 | 79 | 1022.3 |
| 20260508102015 | 0 | 248 | 0.0 | 4.8 | 0.00 | 0.00 | 0.00 | 80 | 1022.1 |
| 20260508101512 | 0 | 230 | 1.6 | 3.2 | 0.00 | 0.00 | 0.00 | 80 | 1022.0 |
| 20260508101008 | 0 | 210 | 3.2 | 3.2 | 0.00 | 0.00 | 0.00 | 80 | 1022.0 |
| 20260508100507 | 0 | 234 | 1.6 | 4.8 | 0.00 | 0.00 | 0.00 | 80 | 1021.8 |
| 20260508100003 | 0 | 216 | 0.0 | 0.0 | 0.00 | 0.00 | 0.00 | 79 | 1021.9 |
| 20260508095500 | 0 | 242 | 3.2 | 4.8 | 0.00 | 0.00 | 0.00 | 78 | 1022.0 |
| 20260508094957 | 0 | 230 | 0.0 | 0.0 | 0.00 | 0.00 | 0.00 | 79 | 1022.0 |
| 20260508094454 | 0 | 248 | 0.0 | 6.4 | 0.00 | 0.00 | 0.00 | 78 | 1021.9 |
| 20260508093950 | 0 | 220 | 3.2 | 4.8 | 0.00 | 0.00 | 0.00 | 81 | 1021.9 |
| 20260508093447 | 1 | 250 | 1.6 | 9.7 | 0.00 | 0.00 | 0.00 | 78 | 1022.0 |
| 20260508092945 | 1 | 224 | 1.6 | 4.8 | 0.00 | 0.00 | 0.00 | 78 | 1022.0 |
| 20260508092443 | 1 | 208 | 4.8 | 6.4 | 0.00 | 0.00 | 0.00 | 78 | 1022.1 |
| 20260508091942 | 1 | 282 | 1.6 | 4.8 | 0.00 | 0.00 | 0.00 | 77 | 1022.0 |
| 20260508091438 | 1 | 197 | 6.4 | 6.4 | 0.00 | 0.00 | 0.00 | 76 | 1022.1 |
| 20260508090935 | 2 | 252 | 0.0 | 3.2 | 0.00 | 0.00 | 0.00 | 69 | 1022.1 |
| 20260508090434 | 2 | 223 | 3.2 | 3.2 | 0.00 | 0.00 | 0.00 | 70 | 1022.3 |
| 20260508085929 | 3 | 230 | 3.2 | 4.8 | 0.00 | 0.00 | 0.00 | 66 | 1022.3 |
| 20260508085426 | 3 | 262 | 0.0 | 1.6 | 0.00 | 0.00 | 0.00 | 66 | 1022.3 |
| 20260508084923 | 2 | 129 | 3.2 | 4.8 | 0.00 | 0.00 | 0.00 | 65 | 1022.3 |
| 20260508084419 | 3 | 265 | 0.0 | 6.4 | 0.00 | 0.00 | 0.00 | 63 | 1022.3 |
| 20260508083918 | 4 | 238 | 1.6 | 4.8 | 0.00 | 0.00 | 0.00 | 60 | 1022.4 |
| 20260508083415 | 5 | 258 | 0.0 | 14.5 | 0.00 | 0.00 | 0.00 | 53 | 1022.4 |
| 20260508082914 | 3 | 11 | 9.7 | 17.7 | 0.00 | 0.00 | 0.00 | 57 | 1022.3 |
| 20260508082412 | 2 | 226 | 3.2 | 3.2 | 0.00 | 0.00 | 0.00 | 69 | 1023.1 |
| 20260508081910 | 2 | 265 | 0.0 | 3.2 | 0.00 | 0.00 | 0.00 | 67 | 1022.7 |
| 20260508081406 | 2 | 224 | 3.2 | 4.8 | 0.00 | 0.00 | 0.00 | 68 | 1022.7 |
| 20260508080902 | 3 | 230 | 1.6 | 3.2 | 0.00 | 0.00 | 0.00 | 67 | 1022.7 |
| 20260508080401 | 3 | 212 | 3.2 | 4.8 | 0.00 | 0.00 | 0.00 | 63 | 1022.7 |
| 20260508075857 | 5 | 246 | 8.0 | 11.3 | 0.00 | 0.00 | 0.00 | 59 | 1022.9 |
| 20260508075354 | 4 | 231 | 4.8 | 6.4 | 0.00 | 0.00 | 0.00 | 58 | 1022.9 |
| 20260508074852 | 4 | 267 | 3.2 | 4.8 | 0.00 | 0.00 | 0.00 | 61 | 1022.9 |
| 20260508074348 | 4 | 262 | 0.0 | 1.6 | 0.00 | 0.00 | 0.00 | 60 | 1023.1 |
| 20260508073845 | 5 | 243 | 3.2 | 9.7 | 0.00 | 0.00 | 0.00 | 63 | 1023.2 |
| 20260508073344 | 5 | 229 | 4.8 | 6.4 | 0.00 | 0.00 | 0.00 | 60 | 1022.9 |
| 20260508072840 | 5 | 270 | 6.4 | 6.4 | 0.00 | 0.00 | 0.00 | 60 | 1023.5 |
| 20260508072336 | 5 | 232 | 3.2 | 11.3 | 0.00 | 0.00 | 0.00 | 60 | 1023.3 |
| 20260508071834 | 5 | 292 | 6.4 | 16.1 | 0.00 | 0.00 | 0.00 | 56 | 1023.1 |
| 20260508071332 | 5 | 271 | 1.6 | 4.8 | 0.00 | 0.00 | 0.00 | 60 | 1023.2 |
| 20260508070829 | 5 | 353 | 11.3 | 14.5 | 0.00 | 0.00 | 0.00 | 57 | 1023.3 |
| 20260508070327 | 5 | 315 | 4.8 | 4.8 | 0.00 | 0.00 | 0.00 | 61 | 1023.3 |
| 20260508065824 | 5 | 287 | 12.9 | 17.7 | 0.00 | 0.00 | 0.00 | 60 | 1023.5 |
| 20260508065322 | 4 | 252 | 6.4 | 17.7 | 0.00 | 0.00 | 0.00 | 62 | 1023.7 |
| 20260508064820 | 4 | 252 | 4.8 | 12.9 | 0.00 | 0.00 | 0.00 | 68 | 1023.6 |
| 20260508064318 | 3 | 198 | 14.5 | 22.5 | 0.00 | 0.00 | 0.00 | 70 | 1023.6 |
| 20260508063815 | 2 | 219 | 6.4 | 9.7 | 0.00 | 0.00 | 0.00 | 75 | 1023.7 |
| 20260508063313 | 2 | 225 | 6.4 | 9.7 | 0.00 | 0.00 | 0.00 | 82 | 1023.9 |
| 20260508062810 | 1 | 244 | 4.8 | 6.4 | 0.00 | 0.00 | 0.00 | 81 | 1024.0 |
| 20260508062308 | 1 | 238 | 1.6 | 3.2 | 0.00 | 0.00 | 0.00 | 81 | 1023.6 |
| 20260508061804 | 2 | 179 | 4.8 | 4.8 | 0.00 | 0.00 | 0.00 | 79 | 1023.5 |
| 20260508061301 | 1 | 202 | 3.2 | 6.4 | 0.00 | 0.00 | 0.00 | 78 | 1023.5 |
| 20260508060758 | 2 | 232 | 1.6 | 4.8 | 0.00 | 0.00 | 0.00 | 77 | 1023.7 |
| 20260508060256 | 2 | 240 | 0.0 | 0.0 | 0.00 | 0.00 | 0.00 | 76 | 1023.3 |
| 20260508055751 | 2 | 241 | 1.6 | 3.2 | 0.00 | 0.23 | 0.23 | 75 | 1023.6 |
| 20260508055248 | 3 | 321 | 4.8 | 6.4 | 0.00 | 0.23 | 0.23 | 72 | 1023.6 |
| 20260508054744 | 3 | 260 | 0.0 | 1.6 | 0.00 | 0.23 | 0.23 | 64 | 1023.3 |
| 20260508054243 | 3 | 247 | 1.6 | 1.6 | 0.00 | 0.23 | 0.23 | 66 | 1023.6 |
| 20260508053739 | 2 | 209 | 4.8 | 6.4 | 0.00 | 0.23 | 0.23 | 70 | 1023.6 |